Temp
10 10 10 10 10 10 10 10 10 10 10 10 10 10 10 10 10 10 10 10 10 10 10 10 10 10 10 10 10 10 10 10 10 10 10 10 10 10 10 10 10 10
10 10 10 10 10 10 10 10 10 10 10 10 10 10 10 10 10 10 10 10 10 10 10 10 10 10 10 10 10 10 10 10 10 10 10 10 10 10 10 10 10 10
11 10 10 11 11 11 10 10 10 10 10 10 10 10 10 10 10 10 10 10 10 10 10 10 10 10 10 10 10 10 10 10 10 10 10 10 10 10 10 10 10 10
11 11 11 10 11 11 10 10 10 10 10 10 10 10 10 10 10 10 10 10 10 10 10 10 10 10 10 10 10 10 10 10 10 10 10 10 10 10 10 10 10 10
11 11 11 10 10 11 11 11 10 10 10 10 10 10 10 10 10 10 10 10 10 10 10 10 10 10 10 10 10 10 10 10 10 10 10 10 10 10 10 10 10 10
11 11 11 11 11 11 11 11 10 10 10 10 10 10 10 10 10 10 10 10 10 10 10 10 10 10 10 10 10 10 10 10 10 10 10 10 10 10 10 10 10 10
11 11 11 11 11 11 11 11 10 10 10 10 10 10 10 10 10 10 10 10 10 10 10 10 10 10 10 10 10 10 10 10 10 10 10 10 10 10 10 10 10 10
11 11 11 11 11 11 11 11 11 10 10 10 10 10 10 10 10 10 10 10 10 10 10 10 10 10 10 10 10 10 10 10 10 10 10 10 10 10 10 10 10 10
12 11 11 11 11 11 11 11 11 10 10 10 10 10 10 10 10 10 10 11 10 10 10 10 10 10 10 10 10 10 10 10 10 10 10 10 10 10 10 10 10 10
12 12 11 11 11 11 11 11 11 11 10 10 10 10 10 10 10 10 10 11 11 10 10 10 10 10 10 10 10 10 10 10 10 10 10 10 10 10 10 10 10 10
11 11 12 12 11 11 11 11 11 11 11 11 11 11 11 10 10 10 11 11 11 10 10 10 10 10 10 10 10 10 10 10 10 10 10 10 10 10 10 10 10 10
11 11 12 12 12 11 11 11 11 11 11 11 11 11 11 11 10 10 11 11 11 10 10 10 10 10 10 10 10 10 10 10 10 10 10 10 10 10 10 10 10 10
10 11 11 12 12 12 11 11 11 11 11 11 11 11 11 11 11 11 11 11 11 11 11 10 10 10 10 10 10 10 10 10 10 10 10 10 10 10 10 10 10 10
10 10 11 11 11 11 11 11 11 11 11 11 11 11 11 11 11 11 11 11 11 11 11 11 11 11 10 10 10 10 10 10 10 10 10 10 10 10 10 11 11 11
10 10 10 11 11 11 11 11 11 11 11 11 11 11 11 11 11 11 11 11 11 11 11 11 11 11 11 11 10 10 10 10 10 10 10 10 10 10 10 10 11 11
10 10 11 11 10 11 11 11 11 11 11 11 11 11 11 11 11 11 11 11 11 11 11 11 11 11 11 11 11 10 10 10 10 10 10 10 10 10 10 10 11 11
11 11 11 10 10 10 10 11 11 11 11 11 11 11 11 11 11 11 11 11 11 11 11 11 11 12 11 11 11 11 11 10 10 10 10 10 10 11 11 11 11 11
11 11 11 11 10 10 10 10 10 11 11 11 11 11 11 11 11 11 11 11 11 11 11 11 12 12 12 12 11 11 11 11 11 11 11 11 11 11 11 11 11 11
11 11 11 11 10 10 10 10 10 10 10 11 11 11 11 11 11 11 11 11 11 11 12 12 12 12 12 12 12 11 11 11 11 11 11 11 11 11 11 11 11 11
11 11 11 11 11 11 10 10 10 10 10 10 10 11 11 11 11 11 11 11 11 12 12 12 12 12 12 12 12 12 12 11 11 11 11 12 12 12 12 12 12 12
11 11 11 11 11 11 11 11 11 10 10 10 10 10 11 11 11 11 11 11 12 12 12 12 12 12 12 12 12 12 12 12 12 12 12 12 12 12 12 12 12 12
11 11 11 11 11 11 11 11 11 11 11 11 10 10 11 11 11 11 11 11 12 12 12 12 12 12 12 13 12 12 12 12 12 12 12 12 12 12 12 12 12 12
11 11 11 11 11 11 11 11 12 12 12 11 11 11 11 11 11 11 11 12 12 12 12 12 12 12 12 12 12 12 12 12 12 12 12 12 12 12 12 12 13 13
11 11 11 11 11 11 11 11 12 12 12 12 12 12 11 11 11 11 11 12 12 12 12 12 12 12 12 12 12 12 12 12 12 12 12 13 13 13 13 13 13 13
11 11 11 11 11 11 11 11 11 11 12 12 12 12 12 12 12 12 12 12 12 12 12 12 12 12 12 12 12 12 12 12 12 12 13 13 13 13 13 13 13 13
11 11 11 11 12 12 11 11 11 11 11 11 11 11 12 12 12 12 12 12 12 12 12 12 13 13 13 13 13 12 12 12 12 12 13 13 13 13 13 13 13 14
Height
3233 3235 3236 3238 3239 3241 3242 3243 3244 3245 3246 3247 3248 3249 3250 3250 3251 3251 3252 3252 3253 3254 3255 3255 3256 3257 3257 3258 3258 3259 3260 3260 3260 3261 3262 3262 3263 3264 3264 3265 3266 3267
3233 3234 3235 3237 3238 3240 3241 3243 3244 3245 3246 3247 3247 3248 3249 3250 3250 3251 3251 3252 3253 3253 3254 3255 3256 3256 3257 3257 3258 3259 3259 3260 3260 3261 3261 3262 3262 3263 3264 3265 3265 3266
3231 3233 3235 3236 3237 3239 3240 3242 3243 3244 3245 3246 3247 3248 3249 3249 3250 3250 3251 3252 3252 3253 3254 3254 3255 3256 3257 3257 3258 3258 3259 3259 3260 3261 3261 3262 3262 3263 3263 3264 3265 3266
3230 3232 3234 3235 3236 3238 3239 3240 3242 3243 3244 3245 3246 3247 3248 3249 3249 3250 3250 3251 3252 3252 3253 3254 3255 3255 3256 3257 3257 3258 3258 3259 3260 3260 3261 3261 3262 3262 3263 3264 3264 3265
3229 3231 3232 3234 3235 3236 3237 3239 3241 3242 3243 3244 3245 3246 3247 3248 3248 3249 3250 3250 3251 3252 3253 3254 3254 3255 3256 3256 3257 3258 3258 3259 3259 3260 3260 3261 3261 3262 3262 3263 3264 3265
3228 3229 3231 3232 3234 3235 3236 3238 3239 3241 3242 3243 3244 3245 3246 3247 3247 3248 3249 3250 3251 3251 3252 3253 3254 3254 3255 3256 3257 3257 3258 3258 3259 3259 3260 3260 3261 3261 3262 3262 3263 3264
3226 3228 3229 3231 3232 3234 3235 3236 3238 3239 3241 3242 3243 3244 3245 3246 3246 3247 3248 3249 3250 3250 3251 3252 3253 3253 3254 3255 3256 3257 3257 3258 3258 3259 3259 3260 3260 3261 3261 3262 3263 3263
3225 3226 3228 3229 3231 3232 3234 3235 3236 3238 3239 3240 3242 3243 3244 3244 3245 3246 3247 3248 3249 3249 3250 3251 3252 3253 3253 3254 3255 3256 3257 3257 3258 3258 3259 3259 3260 3261 3261 3262 3262 3263
3223 3224 3226 3227 3229 3230 3232 3233 3235 3236 3237 3238 3240 3241 3242 3243 3244 3245 3246 3246 3247 3248 3249 3250 3251 3252 3253 3253 3254 3255 3256 3256 3257 3257 3258 3258 3259 3260 3261 3261 3262 3262
3221 3223 3224 3225 3227 3228 3230 3232 3233 3234 3235 3237 3238 3239 3240 3242 3243 3243 3244 3245 3246 3247 3248 3249 3250 3251 3252 3252 3253 3254 3254 3255 3256 3257 3257 3258 3258 3259 3260 3261 3261 3262
3219 3220 3222 3223 3225 3227 3228 3230 3231 3232 3234 3235 3236 3237 3239 3240 3241 3242 3243 3244 3245 3246 3247 3248 3248 3249 3250 3251 3252 3252 3253 3254 3255 3256 3256 3257 3258 3258 3259 3260 3260 3261
3217 3218 3220 3222 3223 3225 3226 3228 3229 3230 3232 3233 3234 3236 3237 3238 3239 3240 3241 3243 3244 3245 3245 3246 3247 3248 3249 3250 3251 3251 3252 3253 3253 3254 3255 3256 3257 3257 3258 3258 3259 3260
3214 3216 3218 3220 3221 3223 3224 3226 3227 3228 3230 3231 3232 3234 3235 3236 3237 3238 3239 3241 3242 3243 3244 3245 3245 3246 3247 3248 3249 3250 3251 3252 3252 3253 3254 3255 3255 3256 3256 3257 3258 3258
3212 3214 3215 3217 3219 3221 3222 3223 3225 3226 3228 3229 3230 3231 3232 3234 3235 3236 3237 3239 3240 3241 3242 3242 3243 3244 3245 3246 3247 3248 3249 3250 3251 3252 3252 3253 3254 3254 3255 3256 3256 3257
3209 3211 3213 3214 3216 3217 3219 3221 3222 3224 3225 3226 3228 3229 3230 3231 3232 3233 3234 3236 3237 3238 3239 3240 3241 3242 3242 3244 3245 3246 3247 3248 3249 3250 3251 3251 3252 3253 3253 3254 3254 3255
3206 3208 3209 3211 3213 3215 3216 3218 3220 3221 3222 3223 3225 3226 3227 3228 3229 3230 3231 3233 3234 3235 3236 3237 3238 3239 3240 3242 3243 3244 3245 3246 3247 3248 3249 3249 3250 3250 3251 3252 3252 3253
3202 3204 3206 3208 3209 3211 3213 3215 3216 3217 3219 3220 3222 3223 3224 3225 3226 3227 3229 3230 3231 3232 3233 3234 3235 3236 3238 3240 3241 3242 3243 3244 3244 3245 3246 3247 3247 3248 3248 3249 3250 3250
3199 3200 3202 3203 3206 3208 3210 3211 3213 3214 3215 3216 3218 3220 3221 3222 3223 3224 3226 3227 3228 3229 3230 3231 3232 3234 3236 3237 3239 3240 3241 3241 3242 3243 3243 3244 3245 3245 3246 3247 3247 3248
3196 3197 3198 3199 3201 3203 3205 3207 3208 3210 3211 3213 3215 3216 3217 3218 3220 3221 3222 3224 3224 3225 3227 3228 3229 3231 3233 3235 3236 3237 3238 3239 3239 3240 3240 3241 3242 3243 3243 3244 3244 3245
3192 3194 3195 3196 3197 3199 3201 3202 3204 3205 3207 3209 3210 3211 3212 3214 3216 3217 3218 3220 3221 3222 3223 3225 3226 3227 3229 3231 3233 3234 3235 3236 3236 3236 3237 3237 3238 3239 3240 3241 3241 3242
3187 3189 3191 3193 3194 3195 3196 3198 3200 3201 3203 3204 3206 3207 3208 3210 3212 3213 3214 3216 3218 3219 3219 3221 3222 3224 3226 3228 3230 3231 3232 3232 3233 3233 3233 3234 3235 3236 3237 3237 3238 3239
3183 3185 3187 3189 3190 3191 3193 3195 3196 3198 3200 3201 3202 3203 3204 3206 3207 3209 3210 3212 3214 3215 3216 3217 3219 3221 3222 3224 3226 3227 3228 3228 3229 3229 3230 3230 3231 3232 3233 3234 3235 3235
3179 3181 3183 3185 3186 3188 3189 3191 3193 3195 3196 3197 3198 3199 3200 3201 3203 3205 3206 3208 3209 3211 3212 3213 3215 3217 3219 3220 3222 3223 3224 3224 3224 3225 3226 3226 3227 3228 3229 3230 3231 3232
3175 3177 3179 3181 3182 3183 3186 3188 3189 3191 3192 3193 3194 3195 3196 3197 3199 3200 3201 3203 3204 3206 3207 3209 3211 3213 3214 3216 3217 3218 3219 3219 3220 3220 3221 3222 3223 3224 3225 3226 3227 3228
3171 3173 3175 3176 3177 3179 3181 3183 3184 3186 3187 3188 3189 3191 3192 3193 3195 3195 3196 3198 3200 3201 3203 3204 3206 3208 3209 3211 3212 3213 3214 3215 3215 3215 3216 3218 3219 3220 3221 3221 3222 3224
3166 3168 3170 3171 3173 3174 3176 3177 3179 3181 3182 3183 3184 3186 3187 3189 3190 3191 3192 3194 3195 3197 3198 3199 3201 3203 3204 3206 3207 3209 3209 3210 3210 3210 3212 3213 3215 3216 3216 3217 3217 3219
Wind_Speed
23 22 21 19 18 16 15 14 13 13 13 13 12 12 11 10 9 9 8 7 7 7 8 7 7 7 7 8 8 8 8 9 9 9 9 9 8 8 9 8 8 8
23 23 22 21 19 18 16 16 15 14 14 14 14 13 12 11 11 10 9 8 8 7 7 7 6 6 6 7 7 7 7 8 8 9 9 9 9 9 9 8 8 8
23 24 23 22 20 19 18 18 17 16 15 15 15 14 13 12 12 11 10 10 9 8 7 7 6 6 6 6 6 6 6 7 7 8 9 9 10 9 9 9 9 9
23 23 23 23 22 21 20 19 18 17 17 16 16 15 14 14 14 13 12 11 10 9 9 8 7 7 6 6 5 6 6 6 6 7 8 9 9 10 10 10 10 10
22 23 23 24 24 23 22 20 19 19 18 18 17 17 16 15 15 14 13 12 11 11 10 10 9 8 7 7 6 6 6 5 6 6 6 8 9 10 10 10 11 12
22 22 23 24 25 24 23 22 21 20 20 19 19 19 17 16 16 15 14 13 12 11 11 11 10 9 9 8 8 7 7 6 6 6 6 7 8 8 9 10 12 12
22 22 23 24 25 25 24 23 23 22 21 21 21 20 19 18 17 16 15 14 13 13 12 12 12 11 10 10 9 8 8 7 7 6 6 7 7 8 8 10 11 12
22 22 22 24 25 26 26 25 24 23 22 22 22 21 20 19 18 17 16 16 15 15 14 14 13 13 12 11 11 10 9 9 8 8 7 7 8 8 8 9 11 12
23 22 22 23 24 25 26 26 25 24 24 23 22 22 21 20 19 19 18 17 17 17 16 15 15 14 13 13 12 12 11 10 10 9 9 8 9 9 9 10 11 12
24 23 23 23 24 24 25 26 26 26 25 24 23 23 23 22 21 21 20 19 19 18 17 17 16 15 14 14 14 13 12 12 12 11 11 10 10 10 10 10 10 12
25 24 24 24 24 24 24 24 26 27 26 25 25 24 24 23 23 23 21 20 20 19 18 18 17 17 16 16 15 14 14 14 13 13 13 13 13 12 12 11 11 11
25 25 25 25 24 24 23 23 24 26 27 27 27 26 25 25 25 24 23 21 20 20 19 19 18 18 18 17 17 17 16 16 15 15 15 15 15 15 14 14 13 13
26 26 25 25 25 24 24 24 24 25 26 27 27 28 27 26 26 25 24 23 21 21 20 20 20 20 20 19 19 19 19 18 18 17 17 17 17 17 16 16 16 15
27 26 26 25 25 25 25 26 26 26 26 26 27 28 28 28 27 27 26 24 23 23 22 22 22 22 21 21 21 21 20 20 20 19 19 19 19 19 19 18 18 18
28 27 27 26 26 26 26 26 26 27 27 27 27 28 28 28 28 28 28 27 26 25 25 24 24 24 24 23 22 21 21 21 21 21 21 21 21 21 21 21 20 20
29 29 28 28 27 26 26 26 26 27 28 28 28 28 29 29 29 29 29 28 28 28 27 26 26 26 25 24 23 23 22 22 23 23 22 23 23 23 23 23 23 22
31 30 30 29 28 27 26 26 26 27 28 29 29 29 30 31 31 30 30 29 29 29 29 28 28 27 26 25 24 24 24 24 24 24 23 24 24 24 24 24 24 24
32 32 32 31 30 29 28 27 28 29 29 29 29 29 30 31 32 32 32 31 30 30 30 30 29 28 26 25 25 25 25 25 26 25 25 25 25 25 25 25 25 26
32 33 34 33 32 31 30 30 30 30 31 30 30 30 31 31 32 32 33 33 33 32 31 31 30 30 28 26 26 26 26 27 27 27 27 27 26 26 26 25 26 26
33 34 35 35 35 34 33 33 33 32 32 32 31 32 32 32 32 32 33 33 34 34 33 33 32 31 30 28 28 28 28 28 29 29 29 29 28 28 27 27 27 27
34 35 36 36 36 36 35 35 34 34 34 33 33 33 33 32 32 32 33 33 33 34 35 35 34 33 32 30 30 30 30 31 32 32 32 31 30 29 28 28 28 27
35 36 37 37 37 38 37 37 36 35 34 34 34 34 34 33 33 33 33 33 33 33 35 35 34 34 33 32 31 31 32 33 34 34 33 33 32 31 29 29 29 28
34 35 36 37 38 39 39 38 37 36 35 35 35 35 34 34 33 33 33 33 33 33 34 34 33 32 32 32 31 32 33 34 35 34 34 33 33 32 31 30 30 29
35 35 36 37 38 39 39 40 39 38 37 37 37 36 35 34 34 33 33 33 33 33 33 33 32 31 31 31 31 31 32 34 35 35 34 34 33 32 32 31 31 30
34 35 36 38 39 40 40 40 41 40 39 40 39 38 36 35 35 35 34 33 32 32 33 33 32 32 31 31 31 31 32 33 34 35 35 34 33 33 33 33 32 31
33 34 36 38 40 41 41 41 42 42 41 41 41 40 39 37 36 36 35 33 32 32 32 33 32 32 32 32 31 32 33 33 35 36 35 34 33 33 33 33 33 32
Wind_Direction
203 204 204 202 198 197 196 196 196 195 192 189 187 190 193 192 192 191 188 182 176 166 158 155 157 164 169 170 175 181 184 183 183 185 188 192 193 191 187 181 185 187
205 205 206 206 202 200 198 199 200 197 196 195 193 196 199 196 196 196 196 196 192 184 174 168 164 163 166 169 173 178 185 188 190 190 191 194 197 198 195 189 190 190
207 207 208 208 206 203 202 202 202 200 199 200 199 200 201 201 201 200 200 202 202 197 189 185 182 176 173 173 173 175 182 189 194 197 197 197 200 202 202 199 196 190
208 208 210 211 210 208 207 205 203 203 203 203 204 206 206 207 206 205 203 203 205 204 200 198 196 191 188 184 181 181 184 190 199 205 204 202 203 203 203 203 199 191
209 208 209 213 214 213 211 208 206 207 207 207 209 211 211 211 210 210 209 207 207 208 206 206 204 202 202 198 191 188 188 193 203 211 209 206 208 206 202 202 201 194
212 209 208 212 216 217 215 212 210 211 211 211 213 215 214 214 214 214 213 212 212 213 213 213 210 207 207 207 202 197 193 195 202 209 209 207 211 210 203 202 202 199
217 213 211 212 215 218 219 217 215 213 214 214 215 217 218 219 219 218 217 216 216 217 218 218 216 212 211 211 210 207 202 201 202 205 207 207 210 211 206 204 205 205
220 218 216 216 216 217 219 221 220 217 217 218 218 220 221 223 224 223 222 220 218 218 217 218 218 216 215 215 215 214 212 210 209 209 210 210 211 214 212 210 212 213
222 220 219 219 219 219 220 222 223 221 221 221 221 223 225 225 226 227 227 225 223 220 216 216 217 216 216 216 216 217 217 217 218 216 217 216 214 218 220 220 222 223
226 223 222 222 223 223 223 224 225 224 225 225 224 225 226 227 228 228 228 227 226 224 220 218 217 216 215 216 216 219 219 221 223 223 224 224 222 223 224 225 227 228
230 227 224 223 224 225 225 226 228 228 227 227 228 228 228 228 229 229 229 228 228 227 226 225 224 222 220 218 218 220 221 224 226 227 228 229 229 229 228 228 230 231
233 232 228 225 225 226 227 227 229 230 230 229 230 232 231 229 230 231 230 230 231 231 231 230 231 231 229 226 225 224 224 226 227 229 231 232 232 234 233 232 231 231
234 235 233 230 227 227 227 227 229 231 232 231 232 234 234 233 232 233 233 232 233 234 235 234 234 235 235 233 233 232 229 228 229 230 232 233 234 236 237 236 235 233
231 234 236 235 232 230 229 229 230 232 233 233 233 235 237 237 235 236 236 236 235 236 237 237 237 237 237 236 236 236 235 233 232 232 233 234 236 238 239 240 240 238
226 231 235 237 236 234 232 231 231 233 234 234 234 235 237 239 239 238 238 238 238 238 238 238 238 237 237 237 236 238 239 238 236 235 235 235 236 238 240 241 242 243
221 225 230 235 237 238 236 234 233 234 235 236 236 236 237 239 240 240 240 240 240 240 240 240 239 238 237 237 237 237 239 240 240 238 237 238 238 238 240 241 243 244
217 219 225 229 233 235 237 237 236 236 236 236 237 237 238 239 241 242 242 243 242 242 242 242 242 241 239 238 238 238 239 240 242 242 240 240 241 240 241 242 243 245
217 217 220 224 226 229 231 234 237 237 238 238 237 238 238 239 241 242 243 244 245 244 243 244 245 245 242 240 239 240 241 243 245 246 245 245 245 245 245 244 245 246
220 218 219 221 222 223 224 227 231 234 238 240 239 239 239 239 240 242 243 244 245 247 246 246 247 247 246 243 242 242 243 245 248 250 251 251 251 251 250 249 248 248
219 220 221 222 222 223 222 224 226 230 234 238 239 240 240 240 240 241 243 243 245 247 249 248 248 248 248 246 245 246 246 248 250 253 255 255 256 256 255 254 253 253
217 219 222 224 225 225 225 225 227 229 232 234 237 240 242 241 241 242 243 243 244 246 248 249 250 250 250 250 248 249 250 250 252 254 256 258 259 259 259 258 258 257
217 218 220 223 225 227 228 229 231 233 234 235 237 239 241 242 242 243 244 244 244 245 247 249 250 251 252 252 252 252 252 253 253 255 256 258 259 259 259 259 259 259
218 219 220 222 224 227 229 232 235 237 238 238 238 239 241 242 242 243 245 246 246 246 246 247 249 250 251 252 252 252 252 253 254 255 256 257 258 258 258 258 258 258
220 220 220 221 222 225 228 231 234 237 238 239 240 240 241 242 243 244 245 246 247 247 247 247 247 247 247 247 247 248 248 250 252 253 254 254 255 256 256 256 256 256
223 221 220 221 222 224 227 230 232 233 235 236 237 238 240 243 244 244 245 245 246 247 247 246 245 244 244 243 243 244 245 246 248 249 250 251 252 253 254 255 255 255
226 223 221 222 223 224 225 227 229 230 232 233 234 235 237 240 243 245 246 247 246 247 246 245 244 242 241 240 239 240 242 244 246 248 248 249 250 251 252 253 254 254